カタログに戻る

STARLINK-37021

運用中通信SSO
NORAD 68105·PAYLOAD·🇺🇸 United States

打ち上げ Mar 8, 2026 から Vandenberg Space Force Base

Loading…

次のパス (今後24時間)

TLE

最新Source: CelesTrak SupGP

元期: Sep 15, 2026, 02:52 UTC

1 68105C 26044E   26258.11993056 -.00011985  00000+0 -37198-3 0  2587
2 68105  97.2851 217.0989 0002056  87.8519 146.7676 15.33447982    15

AllMySatでSTARLINK-37021をリアルタイム追跡

Download on the App Store